[[{"header":{"parameterUnit":"m.s-1","parameterCategory":1,"la1":30.2991,"la2":30.254,"lo1":-89.0895,"lo2":-89.0444,"dy":0.0017,"dx":0.0017,"nx":28,"ny":28,"refTime":"2024-06-28T03:00:00:Z","depth":0,"parameterNumber":2,"parameterNumberName":"U-component_of_WINDS"},"data":[0,0,0,0,0,0,0,0,0,0,0,0,0,0,0,0,0,0,0,0,0,0,0,0,0,0,0,0,0,0,0,0,0,0,0,0,0,0,0,0,0,0,0,0,0,0,0,0,0,0,0,0,0,0,0,0,0,0,1.4649,1.4649,0,1.4692,1.4693,1.4694,1.473,1.473,1.473,1.4731,1.4777,1.4778,1.4778,0,0,0,0,0,0,0,0,0,0,0,0,0,1.4597,1.4597,1.4649,1.4649,1.465,1.4692,1.4693,1.4694,1.473,1.473,1.473,1.4731,1.4776,1.4777,1.4778,0,0,0,0,0,0,0,0,0,0,0,0,0,1.4628,1.4598,1.4648,1.4673,1.4675,1.4692,1.4693,1.4694,1.4729,1.473,1.4731,1.4731,1.4776,1.4777,1.4779,1.4775,0,0,1.4783,1.4783,0,0,0,0,0,0,0,0,1.4626,1.463,1.4669,1.4671,1.4674,1.4706,1.4692,1.4721,1.4729,1.4709,1.4731,1.4731,1.4753,1.4756,1.4763,1.4778,1.478,1.4783,1.4784,1.4784,1.4784,0,0,0,0,0,0,0,1.4624,1.4628,1.4666,1.4669,1.4672,1.4682,1.4687,1.4697,1.4727,1.4711,1.4713,1.4718,1.4754,1.4762,1.4764,1.478,1.4783,1.4784,1.4785,1.4785,1.4795,1.4794,0,0,0,0,0,0,1.4618,1.4626,1.4665,1.4667,1.4651,1.4682,1.4688,1.4695,1.4727,1.4733,1.4718,1.472,1.4759,1.4763,1.4766,1.4764,1.4784,1.4785,1.4786,1.4795,1.4794,1.4794,0,0,0,0,0,0,1.4616,1.4621,1.4663,1.4647,1.4653,1.4682,1.4691,1.4696,1.4703,1.4732,1.4738,1.4719,1.476,1.4764,1.4773,1.4767,1.4786,1.4787,1.4796,1.4795,1.4794,1.4761,0,0,0,0,0,0,1.4615,1.462,1.4619,1.4647,1.4654,1.4668,1.469,1.4696,1.4705,1.4708,1.4736,1.4741,1.4761,1.4771,1.4774,1.4769,1.4788,1.4796,1.4795,1.4794,1.4763,1.4759,1.4756,0,0,0,0,0,1.4613,1.4608,1.4619,1.4623,1.4653,1.4668,1.4672,1.4694,1.4705,1.4704,1.4723,1.474,1.4767,1.4771,1.4775,1.477,1.4797,1.4796,1.4794,1.4764,1.476,1.4756,0,0,0,0,0,0,1.4579,1.4612,1.4624,1.4628,1.4645,1.4674,1.4673,1.4689,1.4703,1.4706,1.4734,1.474,1.4745,1.4759,1.4763,1.4769,1.4784,1.4784,1.476,1.4756,1.4752,1.4749,1.4789,0,0,0,0,0,1.4571,1.458,1.4609,1.461,1.4618,1.4644,1.4651,1.4667,1.4686,1.4693,1.4712,1.473,1.4742,1.475,1.4763,1.4765,1.4772,1.4764,1.476,1.4757,1.4757,1.4759,1.4755,1.479,1.479,1.479,0,0,1.4557,1.4576,1.458,1.4604,1.4618,1.4627,1.465,1.4658,1.4665,1.4694,1.4703,1.4718,1.474,1.4745,1.4748,1.4756,1.4749,1.4756,1.4753,1.4754,1.4757,1.4754,1.4751,1.4789,1.4789,1.4789,0,0,1.4535,1.455,1.4553,1.4567,1.4589,1.4606,1.4607,1.4634,1.4644,1.4654,1.4676,1.4685,1.4706,1.472,1.473,1.4714,1.473,1.4717,1.47,1.4701,1.4699,1.4696,1.469,1.4688,1.4716,1.4716,1.4716,0,1.4514,1.4528,1.4552,1.4559,1.4569,1.4596,1.4598,1.4611,1.4636,1.4642,1.4651,1.4678,1.4695,1.4703,1.4699,1.4707,1.4708,1.4714,1.4697,1.4695,1.4693,1.4688,1.4685,1.4715,1.4715,1.4715,1.4715,0,1.4501,1.451,1.4509,1.4533,1.4542,1.4547,1.4572,1.458,1.4595,1.4612,1.4621,1.4642,1.4659,1.4663,1.4678,1.4674,1.4678,1.4692,1.4707,1.4688,1.4683,1.4681,1.4712,1.4713,1.4713,1.4714,0,0,1.4458,1.4495,1.4494,1.4505,1.4531,1.4539,1.4545,1.4562,1.4568,1.4584,1.459,1.4607,1.462,1.4631,1.4648,1.465,1.4635,1.4663,1.4664,1.4657,1.4632,1.4621,1.4618,1.4646,1.4646,1.4646,1.463,0,1.444,1.4452,1.4474,1.4479,1.4488,1.4514,1.452,1.4536,1.4552,1.4562,1.458,1.4592,1.4608,1.4615,1.4617,1.4636,1.463,1.4638,1.4652,1.4652,1.4645,1.4616,1.4604,1.4588,1.4628,1.4628,1.4628,0,1.442,1.4435,1.444,1.4466,1.4471,1.4475,1.4493,1.4502,1.4522,1.4533,1.4546,1.4565,1.4573,1.4587,1.4599,1.4604,1.4611,1.4621,1.4621,1.4623,1.4638,1.4616,1.4584,1.4581,1.4625,1.4625,1.4625,0,1.4387,1.4409,1.4415,1.4424,1.4454,1.4457,1.4469,1.449,1.4499,1.4514,1.452,1.4536,1.4545,1.4557,1.458,1.4589,1.4589,1.4606,1.4599,1.4598,1.4598,1.4597,1.4565,1.4603,1.4603,1.4603,1.4603,0,1.4365,1.4367,1.4401,1.4405,1.4408,1.4434,1.4437,1.4453,1.4471,1.4478,1.4502,1.4508,1.4538,1.4548,1.4566,1.4573,1.4577,1.4587,1.4591,1.4584,1.4583,1.4589,1.4591,1.4603,1.4603,1.4603,1.4603,0,1.4329,1.4352,1.436,1.4388,1.4395,1.4397,1.4421,1.4426,1.4443,1.4452,1.4456,1.4483,1.4496,1.452,1.4541,1.4553,1.4556,1.4564,1.4549,1.4551,1.4543,1.4543,1.4513,1.4511,1.455,1.455,1.455,0,1.4312,1.4315,1.4343,1.435,1.4361,1.4372,1.4381,1.4407,1.4415,1.4438,1.444,1.4455,1.4468,1.4488,1.451,1.4525,1.4534,1.4522,1.4537,1.4529,1.4533,1.4533,1.4533,1.4519,1.4518,1.4518,1.4518,0,1.4281,1.4292,1.4304,1.432,1.433,1.4344,1.4359,1.4363,1.4392,1.4401,1.4414,1.4425,1.4445,1.4459,1.4478,1.4492,1.4509,1.4513,1.4512,1.4505,1.4496,1.45,1.4539,1.4514,1.4514,1.4514,1.4514,1.4515,1.4254,1.4257,1.4278,1.429,1.4304,1.4318,1.4324,1.4342,1.4354,1.4372,1.4387,1.4399,1.4419,1.4446,1.4458,1.4469,1.4477,1.4476,1.4476,1.4475,1.4472,1.4494,1.4472,1.4472,1.4473,1.4473,1.4473,0,1.4223,1.4237,1.4249,1.4269,1.4279,1.4295,1.4313,1.432,1.433,1.4348,1.436,1.4376,1.439,1.4413,1.4429,1.4433,1.4441,1.4436,1.4436,1.4439,1.4463,1.4462,1.4429,1.4429,1.4429,1.4429,1.4429,1.4429,1.4208,1.4215,1.4228,1.4242,1.4257,1.4269,1.4277,1.429,1.4304,1.432,1.4332,1.4347,1.4366,1.4384,1.4398,1.4404,1.4409,1.4401,1.441,1.4433,1.4437,1.4441,1.444,1.4402,1.4402,1.4384,1.4384,1.4384]},{"header":{"parameterUnit":"m.s-1","parameterCategory":1,"la1":30.2991,"la2":30.254,"lo1":-89.0895,"lo2":-89.0444,"dy":0.0017,"dx":0.0017,"nx":28,"ny":28,"refTime":"2024-06-28T03:00:00:Z","depth":0,"parameterNumber":3,"parameterNumberName":"V-component_of_WINDS"},"data":[0,0,0,0,0,0,0,0,0,0,0,0,0,0,0,0,0,0,0,0,0,0,0,0,0,0,0,0,0,0,0,0,0,0,0,0,0,0,0,0,0,0,0,0,0,0,0,0,0,0,0,0,0,0,0,0,0,0,2.6615,2.6616,0,2.6656,2.6656,2.6657,2.6678,2.6678,2.6678,2.6678,2.6719,2.672,2.6721,0,0,0,0,0,0,0,0,0,0,0,0,0,2.6557,2.6558,2.6615,2.6616,2.6616,2.6656,2.6656,2.6657,2.6678,2.6678,2.6678,2.6678,2.6719,2.672,2.6721,0,0,0,0,0,0,0,0,0,0,0,0,0,2.6588,2.6558,2.6615,2.6632,2.6634,2.6656,2.6657,2.6657,2.6678,2.6678,2.6678,2.6678,2.6719,2.672,2.6722,2.673,0,0,2.6726,2.6727,0,0,0,0,0,0,0,0,2.6586,2.659,2.6629,2.6631,2.6633,2.6662,2.6651,2.6682,2.6678,2.6661,2.6678,2.6678,2.67,2.6703,2.6711,2.6732,2.6734,2.6727,2.6728,2.6728,2.6729,0,0,0,0,0,0,0,2.6584,2.6589,2.6631,2.6629,2.6632,2.6637,2.6642,2.6657,2.668,2.6663,2.6664,2.6669,2.6701,2.6709,2.6712,2.6735,2.6727,2.6728,2.6729,2.673,2.6766,2.6766,0,0,0,0,0,0,2.6579,2.6587,2.663,2.6633,2.6609,2.6638,2.6643,2.6653,2.668,2.6684,2.6669,2.667,2.6706,2.671,2.6713,2.6726,2.6728,2.673,2.6731,2.6766,2.6766,2.6767,0,0,0,0,0,0,2.6578,2.6583,2.6629,2.661,2.6616,2.6639,2.665,2.6653,2.6661,2.6684,2.6689,2.6673,2.6707,2.6711,2.6726,2.6728,2.673,2.6732,2.6766,2.6766,2.6766,2.6751,0,0,0,0,0,0,2.6576,2.6582,2.6586,2.661,2.6617,2.6641,2.665,2.6654,2.6664,2.6666,2.6689,2.6693,2.6707,2.6724,2.6728,2.673,2.6733,2.6766,2.6766,2.6766,2.6752,2.6751,2.675,0,0,0,0,0,2.6574,2.6579,2.6586,2.6591,2.6622,2.6641,2.6645,2.6661,2.6664,2.6668,2.6683,2.6692,2.6727,2.6725,2.673,2.6733,2.6766,2.6766,2.6766,2.6752,2.6751,2.675,0,0,0,0,0,0,2.6554,2.6583,2.659,2.6603,2.662,2.6644,2.6649,2.6659,2.6674,2.6675,2.6694,2.6699,2.6713,2.6724,2.6722,2.6743,2.6748,2.6749,2.6735,2.6734,2.6733,2.673,2.6734,0,0,0,0,0,2.6551,2.6564,2.6588,2.6598,2.6605,2.6626,2.6635,2.6646,2.6663,2.667,2.6686,2.6702,2.6717,2.6726,2.6741,2.6753,2.6759,2.6758,2.6757,2.6756,2.6757,2.6765,2.6765,2.6767,2.6767,2.6767,0,0,2.6545,2.6563,2.6569,2.6594,2.6608,2.6621,2.6631,2.6644,2.6654,2.6672,2.6687,2.67,2.6719,2.6733,2.674,2.6743,2.6758,2.6756,2.6755,2.6756,2.6765,2.6765,2.6765,2.6767,2.6767,2.6767,0,0,2.6541,2.6555,2.6566,2.6579,2.66,2.6614,2.6616,2.664,2.6649,2.6665,2.6679,2.6691,2.6716,2.6729,2.6739,2.6742,2.6752,2.6747,2.6742,2.675,2.675,2.675,2.6752,2.6752,2.6747,2.6747,2.6747,0,2.6531,2.6552,2.6569,2.6582,2.6593,2.661,2.662,2.6633,2.6657,2.6665,2.6668,2.67,2.6714,2.6732,2.6733,2.674,2.6744,2.6744,2.6749,2.6749,2.6749,2.6751,2.6751,2.6746,2.6746,2.6747,2.6747,0,2.6539,2.6553,2.6558,2.6582,2.6594,2.6605,2.6625,2.6635,2.6645,2.6659,2.6675,2.6693,2.6712,2.6718,2.6727,2.6737,2.6739,2.6745,2.675,2.6748,2.675,2.6751,2.6745,2.6746,2.6746,2.6746,0,0,2.6523,2.6557,2.6559,2.6571,2.6595,2.6607,2.6619,2.6639,2.6647,2.6663,2.6675,2.6696,2.6702,2.6714,2.6726,2.6733,2.6735,2.6738,2.6739,2.6738,2.6748,2.6744,2.6744,2.6742,2.6742,2.6742,2.6747,0,2.6523,2.6546,2.6563,2.658,2.6594,2.6611,2.6622,2.6639,2.6652,2.6666,2.6681,2.6696,2.6702,2.671,2.6717,2.6733,2.6738,2.6733,2.6753,2.6753,2.6748,2.6745,2.674,2.6744,2.6748,2.6748,2.6748,0,2.6526,2.6543,2.6561,2.6586,2.6592,2.6602,2.6622,2.6634,2.6654,2.6663,2.6677,2.6689,2.6704,2.6708,2.6729,2.6725,2.6735,2.6744,2.6744,2.6747,2.6751,2.6748,2.6745,2.6746,2.6749,2.6749,2.6749,0,2.6513,2.654,2.6555,2.6565,2.6594,2.66,2.6613,2.6632,2.6643,2.666,2.6668,2.6686,2.6696,2.6711,2.6728,2.6729,2.6747,2.6752,2.6756,2.6756,2.6759,2.6759,2.6758,2.6764,2.6764,2.6764,2.6764,0,2.6511,2.6522,2.655,2.6559,2.6573,2.6592,2.6605,2.6618,2.6636,2.6649,2.6664,2.6676,2.6698,2.6712,2.6726,2.6742,2.6746,2.6754,2.6758,2.6753,2.6752,2.6759,2.676,2.6764,2.6764,2.6764,2.6764,0,2.6499,2.6518,2.6536,2.6562,2.6569,2.6578,2.66,2.661,2.6625,2.6641,2.6646,2.6668,2.6686,2.6705,2.6729,2.6738,2.6754,2.6758,2.6747,2.6749,2.6752,2.6752,2.6756,2.6758,2.6763,2.6763,2.6762,0,2.6497,2.6506,2.6534,2.6543,2.6556,2.6571,2.6583,2.6602,2.6614,2.6638,2.6645,2.6664,2.668,2.6708,2.6727,2.6746,2.6751,2.6752,2.6754,2.675,2.6752,2.6752,2.6753,2.6751,2.6751,2.6751,2.675,0,2.6491,2.6501,2.6517,2.6537,2.655,2.6567,2.6584,2.6591,2.6614,2.6626,2.6645,2.6658,2.6683,2.6702,2.6723,2.6736,2.6748,2.675,2.6752,2.6747,2.674,2.6745,2.6745,2.6749,2.675,2.675,2.675,2.675,2.6484,2.6494,2.6515,2.6533,2.6548,2.6564,2.6575,2.6592,2.6608,2.663,2.6641,2.666,2.668,2.671,2.6723,2.6738,2.6742,2.6744,2.6745,2.6745,2.6744,2.6738,2.6742,2.6742,2.6742,2.6742,2.6742,0,2.648,2.6495,2.6511,2.6535,2.655,2.6559,2.6579,2.659,2.6607,2.6625,2.6642,2.6664,2.6683,2.6703,2.6724,2.6732,2.6738,2.6737,2.6737,2.674,2.674,2.6737,2.6732,2.6732,2.6732,2.6732,2.6732,2.6732,2.648,2.6496,2.6508,2.6533,2.6548,2.6567,2.6577,2.6593,2.6607,2.6632,2.6648,2.6661,2.6681,2.6703,2.6721,2.6727,2.6734,2.6731,2.6739,2.6739,2.6739,2.674,2.6737,2.6733,2.6733,2.6737,2.6737,2.6737]}]]